Grand Rapids, MI

9:21 AM EDT on August 22, 2017 (GMT -0400)
Gerald R. Ford International

Weather History for KGRR - July, 2013

Change the Weather History Date:

Tuesday, July 9, 2013

  Actual Average Record
Temperature  
Mean Temperature 79 °F 73 °F  
Max Temperature 88 °F 83 °F 101 °F (1936)
Min Temperature 69 °F 62 °F 48 °F (1961)
Degree Days  
Heating Degree Days 0 0  
Month to date heating degree days 1 0  
Since 1 June heating degree days 41 45  
Since 1 July heating degree days 1 0  
Cooling Degree Days 14 8  
Month to date cooling degree days 76 69  
Year to date cooling degree days 307 261  
Since 1 June cooling degree days 225 214  
Growing Degree Days 28 (Base 50)    
Moisture  
Dew Point 69 °F    
Average Humidity 70    
Maximum Humidity 90    
Minimum Humidity 50    
Precipitation  
Precipitation 0.30 in 0.12 in 1.34 in (1926)
Month to date precipitation 0.51 1.07  
Year to date precipitation 27.72 18.42  
Snow  
Snow 0.00 in 0.00 in 0.00 in (2006)
Month to date snowfall 0.0 0.0  
Since 1 June snowfall 0.0 0.0  
Since 1 July snowfall 0.0 0.0  
Snow Depth 0.00 in    
Sea Level Pressure  
Sea Level Pressure 29.95 in    
Wind  
Wind Speed 5 mph (WSW)    
Max Wind Speed 18 mph    
Max Gust Speed 24 mph    
Visibility 5 miles    
Events Rain , Thunderstorm    
T = Trace of Precipitation, MM = Missing Value Source: NWS Daily Summary

Daily Weather History Graph

Daily Weather History Graph

Search for Another Location

Airport or City:

Trip Planner

Search our weather history database for the weather conditions in past years. The results will help you decide how hot, cold, wet, or windy it might be!

Date:

Astronomy

Jul. 09, 2013 Rise Set
Actual Time 6:12 AM EDT 9:21 PM EDT
Civil Twilight 5:37 AM EDT 9:56 PM EDT
Nautical Twilight 4:53 AM EDT 10:40 PM EDT
Astronomical Twilight 3:59 AM EDT 11:33 PM EDT
Moon 7:39 AM EDT (7/9) 9:54 PM EDT (7/9)
Length of Visible Light 16h 18m
Length of Day
15h 09m
New Moon, 2% of the Moon is Illuminated
Jul 9
New Moon
Jul 15
First Quarter
Jul 22
Full
Jul 29
Last Quarter
Aug 6
New

Hourly Weather History & Observations

Time (EDT) Temp. Heat Index Dew Point Humidity Pressure Visibility Wind Dir Wind Speed Gust Speed Precip Events Conditions
12:53 AM 71.1 °F - 66.9 °F 87% 29.98 in 7.0 mi Calm Calm - N/A   Clear
1:53 AM 69.1 °F - 66.0 °F 90% 29.97 in 5.0 mi Calm Calm - N/A   Clear
2:26 AM 69.8 °F - 66.2 °F 88% 29.98 in 7.0 mi Calm Calm - N/A   Mostly Cloudy
2:53 AM 71.1 °F - 66.9 °F 87% 29.97 in 4.0 mi Calm Calm - N/A   Overcast
3:53 AM 72.0 °F - 68.0 °F 87% 29.99 in 4.0 mi NW 4.6 mph - N/A   Overcast
4:24 AM 71.6 °F - 66.2 °F 83% 29.99 in 4.0 mi Calm Calm - N/A   Mostly Cloudy
4:31 AM 71.6 °F - 68.0 °F 88% 29.99 in 3.0 mi Calm Calm - N/A   Mostly Cloudy
4:36 AM 71.6 °F - 68.0 °F 88% 29.99 in 3.0 mi Calm Calm - N/A   Overcast
4:53 AM 72.0 °F - 68.0 °F 87% 29.98 in 3.0 mi Calm Calm - N/A   Overcast
5:45 AM 71.6 °F - 68.0 °F 88% 30.00 in 2.5 mi North 3.5 mph - N/A   Overcast
5:53 AM 70.0 °F - 66.9 °F 90% 29.99 in 2.5 mi NNW 3.5 mph - N/A   Overcast
6:53 AM 71.1 °F - 66.9 °F 87% 29.99 in 2.5 mi NNE 3.5 mph - N/A   Mostly Cloudy
7:53 AM 72.0 °F - 66.0 °F 81% 29.99 in 2.5 mi NW 4.6 mph - N/A   Mostly Cloudy
8:08 AM 71.6 °F - 64.4 °F 78% 30.00 in 3.0 mi Calm Calm - N/A   Scattered Clouds
8:35 AM 71.6 °F - 66.2 °F 83% 30.01 in 5.0 mi Calm Calm - N/A   Haze
8:53 AM 73.0 °F - 66.0 °F 79% 30.00 in 6.0 mi Calm Calm - N/A   Haze
9:11 AM 73.4 °F - 66.2 °F 78% 30.01 in 7.0 mi Calm Calm - N/A   Scattered Clouds
9:53 AM 75.9 °F - 66.0 °F 71% 29.99 in 9.0 mi Calm Calm - N/A   Scattered Clouds
10:53 AM 80.1 °F 82.3 °F 66.9 °F 64% 29.98 in 10.0 mi Calm Calm - N/A   Partly Cloudy
11:53 AM 82.9 °F 85.4 °F 66.9 °F 58% 29.97 in 10.0 mi West 4.6 mph - N/A   Partly Cloudy
12:53 PM 86.0 °F 89.4 °F 68.0 °F 55% 29.96 in 10.0 mi South 8.1 mph - N/A   Mostly Cloudy
1:53 PM 87.1 °F 89.9 °F 66.9 °F 51% 29.94 in 10.0 mi West 10.4 mph 17.3 mph N/A   Mostly Cloudy
2:53 PM 84.9 °F 88.8 °F 69.1 °F 59% 29.94 in 10.0 mi SW 6.9 mph - N/A   Overcast
3:53 PM 87.1 °F 92.8 °F 71.1 °F 59% 29.91 in 10.0 mi West 6.9 mph - N/A   Overcast
4:24 PM 82.4 °F 87.2 °F 71.6 °F 70% 29.92 in 1.0 mi SW 18.4 mph 24.2 mph 0.00 in Rain Light Rain
4:30 PM 78.8 °F - 71.6 °F 78% 29.93 in 0.8 mi SSW 10.4 mph 24.2 mph 0.08 in Rain Heavy Rain
4:38 PM 77.0 °F - 71.6 °F 83% 29.92 in 3.0 mi Calm Calm - 0.42 in Rain Heavy Rain
4:53 PM 79.0 °F - 73.0 °F 82% 29.90 in 4.0 mi SSW 10.4 mph - 0.51 in Rain , Thunderstorm Light Thunderstorms and Rain
5:12 PM 78.8 °F - 71.6 °F 78% 29.92 in 6.0 mi WSW 11.5 mph - 0.00 in   Haze
5:43 PM 78.8 °F - 73.4 °F 83% 29.90 in 4.0 mi WSW 11.5 mph - 0.00 in Rain Light Rain
5:53 PM 79.0 °F - 73.0 °F 82% 29.90 in 4.0 mi WSW 13.8 mph - 0.00 in   Haze
6:15 PM 78.8 °F - 73.4 °F 83% 29.91 in 3.0 mi WSW 6.9 mph - 0.00 in Rain Light Rain
6:53 PM 78.1 °F - 73.0 °F 84% 29.88 in 3.0 mi SSW 6.9 mph - 0.00 in   Haze
7:53 PM 78.1 °F - 73.0 °F 84% 29.88 in 3.0 mi South 3.5 mph - N/A   Haze
8:53 PM 78.1 °F - 72.0 °F 81% 29.87 in 5.0 mi South 3.5 mph - 0.00 in   Haze
9:53 PM 75.9 °F - 71.1 °F 85% 29.87 in 9.0 mi SSW 6.9 mph - N/A   Partly Cloudy
10:53 PM 75.0 °F - 71.1 °F 87% 29.87 in 6.0 mi South 5.8 mph - N/A   Partly Cloudy
11:53 PM 75.9 °F - 71.1 °F 85% 29.86 in 6.0 mi SSW 6.9 mph - N/A   Haze